Regional Weather Roundup
Issued by NWS Cleveland, OH

Home | Current Version | Previous Version | Graphics & Text | Print | Product List | Glossary On
Versions: 1 2 3 4 5 6 7 8 9 10 11 12 13 14 15 16 17 18 19 20 21 22 23 24 25 26 27 28 29 30 31 32 33 34 35 36 37 38 39 40 41 42 43 44 45 46 47 48 49 50
000
ASUS41 KCLE 280410
RWRCLE
OHIO REGIONAL WEATHER ROUNDUP
NATIONAL WEATHER SERVICE CLEVELAND, OH
1200 AM EDT TUE JUL 28 2015

NOTE: "FAIR" INDICATES FEW OR NO CLOUDS BELOW 12,000 FEET WITH NO
SIGNIFICANT WEATHER AND/OR OBSTRUCTIONS TO VISIBILITY.

OHZ001>008-015>018-024>027-034-035-043-044-280500-
   NORTHWEST OHIO

CITY           SKY/WX    TMP DP  RH WIND       PRES   REMARKS
DEFIANCE       PTCLDY    70  62  76 CALM      30.04R
FINDLAY        CLEAR     72  61  68 E6        30.03R
TOLEDO EXPRESS CLEAR     66  63  90 CALM      30.04R
TOLEDO EXEC    PTCLDY    72  62  71 NE3       30.05R
LIMA           PTCLDY    69  65  86 E5        30.05R
$$

OHZ009>014-019>023-028>033-038-089-280500-
   NORTHEAST OHIO

CITY           SKY/WX    TMP DP  RH WIND       PRES   REMARKS
CLE-HOPKINS    MOCLDY    74  65  73 CALM      30.06R
CLE-LAKEFRONT  CLEAR     75  65  70 NE3       30.03R
CUY CO. ARPT   NOT AVBL
LORAIN-ELYRIA  PTCLDY    67  63  87 CALM      30.05R
ASHTABULA      CLEAR     65  64  97 CALM      30.07R
AKRON-CANTON   MOCLDY    72  63  73 NE8       30.06R
WOOSTER        MOCLDY    66  64  93 CALM      30.06S
MANSFIELD      PTCLDY    70  62  76 NE5       30.06S
YOUNGSTOWN     PTCLDY    71  62  73 NE7       30.06R
$$

OHZ042-051>053-060>062-070>072-077>081-280500-
  SOUTHWEST OHIO

CITY           SKY/WX    TMP DP  RH WIND       PRES   REMARKS
CINC-COVINGTON CLOUDY    78  72  81 E3        30.02R
CINC-LUNKEN    MOCLDY    72  72 100 CALM      30.01R FOG
HAMILTON       MOCLDY    73  72  96 CALM      30.02R
DAYTON         CLOUDY    75  71  87 NE6       30.04R
WRIGHT-PAT AFB MOCLDY    75  72  90 CALM      30.02S
DAYTON GENERAL   N/A    N/A N/A N/A MISG      30.02R
WILMINGTON     CLOUDY    74  71  91 CALM      30.02S FOG
$$

OHZ036-037-039>041-045>050-054>059-063>069-073>076-082>088-280500-
  CENTRAL AND SOUTHEAST OHIO

CITY           SKY/WX    TMP DP  RH WIND       PRES   REMARKS
COLUMBUS       MOCLDY    74  65  73 N3        30.01S
OSU AIRPORT    PTCLDY    73  64  73 N5        30.02S
BOLTON FIELD   PTCLDY    72  69  89 CALM      30.03S
RICKENBACK AFB MOCLDY    75  71  88 CALM      30.01S
NEWARK         MOCLDY    73  68  84 CALM      30.02S
MARION         CLEAR     70  64  81 NE3       30.04S
LANCASTER      PTCLDY    71  69  93 CALM      30.02S FOG
ZANESVILLE     MOCLDY    75  67  76 CALM      30.02S
NEW PHILLY     PTCLDY    67  66  97 CALM      30.05R
$$



USA.gov is the U.S. government's official web portal to all federal, state and local government web resources and services.